Time,TemperatureF,DewpointF,PressureIn,WindDirection,WindDirectionDegrees,WindSpeedMPH,WindSpeedGustMPH,Humidity,HourlyPrecipIn,Conditions,Clouds,dailyrainin,SoftwareType,DateUTC
2013-02-24 09:30:00,63.2,56.9,30.25,NNW,343,1.0,1.0,80,0.00,,,0.01,Wunderground v.1.15,2013-02-24 07:30:00,
2013-02-24 09:40:00,64.3,57.6,30.25,SW,214,2.0,2.0,79,0.00,,,0.01,Wunderground v.1.15,2013-02-24 07:40:00,
2013-02-24 09:50:00,63.7,55.6,30.25,WSW,249,3.0,4.0,75,0.00,,,0.01,Wunderground v.1.15,2013-02-24 07:50:00,
2013-02-24 18:42:00,60.5,56.3,30.25,NNW,335,1.0,2.0,86,0.00,,,0.01,Wunderground v.1.15,2013-02-24 16:42:00,
2013-02-24 18:52:00,60.4,56.2,30.25,NNW,346,2.0,2.0,86,0.00,,,0.01,Wunderground v.1.15,2013-02-24 16:52:00,
2013-02-24 19:03:00,60.1,56.2,30.25,NNW,341,2.0,4.0,87,0.00,,,0.01,Wunderground v.1.15,2013-02-24 17:03:00,
2013-02-24 19:12:00,60.1,56.2,30.25,North,350,3.0,4.0,87,0.00,,,0.01,Wunderground v.1.15,2013-02-24 17:12:00,
2013-02-24 19:22:00,60.0,56.1,30.25,NNE,25,2.0,3.0,87,0.00,,,0.01,Wunderground v.1.15,2013-02-24 17:22:00,
2013-02-24 19:32:00,59.5,55.6,30.26,NE,45,2.0,2.0,87,0.00,,,0.01,Wunderground v.1.15,2013-02-24 17:32:00,
2013-02-24 19:42:00,58.7,55.2,30.26,NE,45,1.0,1.0,88,0.00,,,0.01,Wunderground v.1.15,2013-02-24 17:42:00,
2013-02-24 19:52:00,58.0,54.8,30.26,NE,46,1.0,1.0,89,0.00,,,0.01,Wunderground v.1.15,2013-02-24 17:52:00,
2013-02-24 20:02:00,57.7,55.1,30.26,NE,46,0.0,0.0,91,0.00,,,0.01,Wunderground v.1.15,2013-02-24 18:02:00,
2013-02-24 20:12:00,57.6,55.0,30.26,NE,46,0.0,0.0,91,0.00,,,0.01,Wunderground v.1.15,2013-02-24 18:12:00,
2013-02-24 20:22:00,57.4,55.1,30.26,NE,46,0.0,0.0,92,0.00,,,0.01,Wunderground v.1.15,2013-02-24 18:22:00,
2013-02-24 20:32:00,57.3,55.0,30.26,NE,46,1.0,1.0,92,0.00,,,0.01,Wunderground v.1.15,2013-02-24 18:32:00,
2013-02-24 20:42:00,56.9,54.3,30.27,ESE,117,1.0,1.0,91,0.00,,,0.01,Wunderground v.1.15,2013-02-24 18:42:00,
2013-02-24 20:52:00,56.6,54.3,30.27,ESE,117,1.0,1.0,92,0.00,,,0.01,Wunderground v.1.15,2013-02-24 18:52:00,
2013-02-24 21:12:00,56.8,54.8,30.26,ESE,117,0.0,1.0,93,0.00,,,0.01,Wunderground v.1.15,2013-02-24 19:12:00,
2013-02-24 21:22:00,56.8,54.8,30.26,ESE,109,1.0,1.0,93,0.00,,,0.01,Wunderground v.1.15,2013-02-24 19:22:00,
2013-02-24 21:32:00,56.8,54.8,30.26,ESE,109,1.0,1.0,93,0.00,,,0.01,Wunderground v.1.15,2013-02-24 19:32:00,
2013-02-24 21:42:00,56.6,54.3,30.26,ESE,109,1.0,1.0,92,0.00,,,0.01,Wunderground v.1.15,2013-02-24 19:42:00,
2013-02-24 21:52:00,56.4,54.4,30.26,ESE,109,0.0,1.0,93,0.00,,,0.01,Wunderground v.1.15,2013-02-24 19:52:00,
2013-02-24 22:12:00,56.3,54.3,30.26,ESE,109,1.0,1.0,93,0.00,,,0.01,Wunderground v.1.15,2013-02-24 20:12:00,
2013-02-24 22:22:00,56.2,54.2,30.26,ESE,109,0.0,1.0,93,0.00,,,0.01,Wunderground v.1.15,2013-02-24 20:22:00,
2013-02-24 22:32:00,56.1,54.1,30.26,ESE,109,0.0,0.0,93,0.00,,,0.01,Wunderground v.1.15,2013-02-24 20:32:00,
2013-02-24 22:42:00,56.0,54.0,30.26,ESE,109,0.0,0.0,93,0.00,,,0.01,Wunderground v.1.15,2013-02-24 20:42:00,
2013-02-24 22:52:00,56.0,54.0,30.26,NNE,22,1.0,2.0,93,0.00,,,0.01,Wunderground v.1.15,2013-02-24 20:52:00,
2013-02-24 23:03:00,55.7,53.1,30.26,NE,50,1.0,2.0,91,0.00,,,0.01,Wunderground v.1.15,2013-02-24 21:03:00,
2013-02-24 23:12:00,55.1,52.8,30.26,NNE,28,2.0,2.0,92,0.00,,,0.01,Wunderground v.1.15,2013-02-24 21:12:00,
2013-02-24 23:32:00,54.6,52.3,30.25,ENE,57,1.0,1.0,92,0.00,,,0.01,Wunderground v.1.15,2013-02-24 21:32:00,
2013-02-24 23:42:00,54.5,52.2,30.25,ENE,57,1.0,1.0,92,0.00,,,0.01,Wunderground v.1.15,2013-02-24 21:42:00,
2013-02-24 23:52:00,54.5,52.2,30.25,ENE,57,0.0,0.0,92,0.00,,,0.01,Wunderground v.1.15,2013-02-24 21:52:00,